This demonstration page uses our WeatherBlox Daily Observations layout. Learn more.

Left ArrowRight Arrow

36.19886, -115.1175

Hourly Observations for December 1, 2015

Temp ( °F °C ) Dew Point ( °F °C ) Humidity (%) Winds ( mph kmh ) Pressure ( in mb ) Visibility ( mi km ) Precip ( " mm )
12:53 am 00:53 Clear 35 1.7 17 -8.3 48 48 NW 6 9 30.24 1024 10 16 0.00 0.00
1:53 am 01:53 Clear 34 1.1 17 -8.3 50 50 NW 6 9 30.23 1024 10 16 0.00 0.00
2:53 am 02:53 Clear 34 1.1 17 -8.3 50 50 NW 6 9 30.23 1024 10 16 0.00 0.00
3:53 am 03:53 Clear 34 1.1 14 -10 44 44 Calm 30.24 1024 10 16 0.00 0.00
4:53 am 04:53 Clear 33 0.6 14 -10 45 45 Calm 30.25 1024 10 16 0.00 0.00
5:53 am 05:53 Clear 33 0.6 13 -10.6 43 43 NW 5 7 30.28 1025 10 16 0.00 0.00
6:53 am 06:53 Sunny 32 0 13 -10.6 45 45 NW 3 6 30.30 1026 10 16 0.00 0.00
7:53 am 07:53 Sunny 38 3.3 14 -10 37 37 Calm 30.31 1026 10 16 0.00 0.00
8:53 am 08:53 Sunny 44 6.7 12 -11.1 27 27 NE 5 7 30.32 1027 10 16 0.00 0.00
9:53 am 09:53 Sunny 45 7.2 13 -10.6 27 27 Calm 30.33 1027 10 16 0.00 0.00
10:53 am 10:53 Sunny 49 9.4 14 -10 25 25 SSE 5 7 30.31 1027 10 16 0.00 0.00
11:53 am 11:53 Sunny 52 11.1 13 -10.6 21 21 Calm 30.28 1026 10 16 0.00 0.00
12:53 pm 12:53 Sunny 54 12.2 11 -11.7 18 18 S 5 7 30.26 1025 10 16 0.00 0.00
1:53 pm 13:53 Sunny 55 12.8 11 -11.7 17 17 Calm 30.24 1024 10 16 0.00 0.00
2:53 pm 14:53 Sunny 55 12.8 11 -11.7 17 17 SE 7 11 30.23 1024 10 16 0.00 0.00
3:53 pm 15:53 Sunny 55 12.8 11 -11.7 17 17 SSE 3 6 30.24 1024 10 16 0.00 0.00
4:53 pm 16:53 Clear 53 11.7 11 -11.7 18 18 Calm 30.27 1025 10 16 0.00 0.00
5:53 pm 17:53 Clear 48 8.9 15 -9.4 27 27 Calm 30.28 1025 10 16 0.00 0.00
6:53 pm 18:53 Clear 45 7.2 17 -8.3 33 33 NW 5 7 30.30 1026 10 16 0.00 0.00
7:53 pm 19:53 Clear 42 5.6 19 -7.2 40 40 WNW 6 9 30.31 1026 10 16 0.00 0.00
8:53 pm 20:53 Clear 41 5 18 -7.8 39 39 N 3 6 30.31 1026 10 16 0.00 0.00
9:53 pm 21:53 Clear 40 4.4 18 -7.8 41 41 WNW 7 11 30.32 1027 10 16 0.00 0.00
10:53 pm 22:53 Clear 38 3.3 15 -9.4 39 39 NW 7 11 30.32 1027 10 16 0.00 0.00
11:53 pm 23:53 Clear 39 3.9 15 -9.4 38 38 WNW 6 9 30.31 1026 10 16 0.00 0.00

Powered by AerisWeather